Back to catalog

STARLINK-11693

AliveCommunicationsVLEO
NORAD 63763·PAYLOAD·🇺🇸 United States

Launched Apr 29, 2025 from Cape Canaveral Space Force Station

Loading…

Next Passes (next 24 hours)

TLE

FreshSource: CelesTrak SupGP

Epoch: Sep 14, 2026, 21:12 UTC

1 63763C 25089N   26257.88381944  .00067462  00000+0  52424-3 0  2577
2 63763  43.0004 231.7156 0001530 257.7129  50.7995 15.70793516    15

Track STARLINK-11693 in real time with AllMySat

Download on the App Store